Location: Newark
(48.1500°N, 2.9667°W)
Time: 14:33:27
(UTC+00:00)

Transit 2A - Pass Details

Date: 29 January 2020
Orbit: 600 x 959 km, 66.7° (Epoch: 22 February)

Event Time Altitude Azimuth Distance (km) Brightness Sun altitude
Rises 18:58:18 0° 202° (SSW) 2,884 9.4 -18.7°
Reaches altitude 10° 19:00:36 10° 198° (SSW) 1,959 8.4 -19.1°
Maximum altitude 19:04:52 57° 120° (ESE) 711 5.5 -19.8°
Enters shadow 19:05:29 51° 84° (E) 759 5.6 -19.9°
Drops below altitude 10° 19:09:08 10° 42° (NE) 1,958 - -20.5°
Sets 19:11:26 0° 38° (NE) 2,883 - -20.9°
